"Time","Value","Approval","myLocation"
"2023-04-17 00:00",22.1099180113795,"Approved","OW438"
"2023-04-17 01:00",22.1199216490999,"Approved","OW438"
"2023-04-17 02:00",22.1329252868203,"Approved","OW438"
"2023-04-17 03:00",22.1459289245406,"Approved","OW438"
"2023-04-17 04:00",22.169932562261,"Approved","OW438"
"2023-04-17 05:00",22.1809361999813,"Approved","OW438"
"2023-04-17 06:00",22.1819398377017,"Approved","OW438"
"2023-04-17 07:00",22.1789434754221,"Approved","OW438"
"2023-04-17 08:00",22.1649471131424,"Approved","OW438"
"2023-04-17 09:00",22.1599507508628,"Approved","OW438"
"2023-04-17 10:00",22.1529543885832,"Approved","OW438"
"2023-04-17 11:00",22.1399580263035,"Approved","OW438"
"2023-04-17 12:00",22.1319616640239,"Approved","OW438"
"2023-04-17 13:00",22.1299653017442,"Approved","OW438"
"2023-04-17 14:00",22.1349689394646,"Approved","OW438"
"2023-04-17 15:00",22.144972577185,"Approved","OW438"
"2023-04-17 16:00",22.1519762149053,"Approved","OW438"
"2023-04-17 17:00",22.1539798526257,"Approved","OW438"
"2023-04-17 18:00",22.1529834903461,"Approved","OW438"
"2023-04-17 19:00",22.1689871280664,"Approved","OW438"
"2023-04-17 20:00",22.1709907657868,"Approved","OW438"
"2023-04-17 21:00",22.1629944035071,"Approved","OW438"
"2023-04-17 22:00",22.1489980412275,"Approved","OW438"
"2023-04-17 23:00",22.1310016789479,"Approved","OW438"
"2023-04-18 00:00",22.1220053166682,"Approved","OW438"
"2023-04-18 01:00",22.1200089543886,"Approved","OW438"
"2023-04-18 02:00",22.1240125921089,"Approved","OW438"
"2023-04-18 03:00",22.1350162298293,"Approved","OW438"
"2023-04-18 04:00",22.1440198675497,"Approved","OW438"
"2023-04-18 05:00",22.14802350527,"Approved","OW438"
"2023-04-18 06:00",22.1470271429904,"Approved","OW438"
"2023-04-18 07:00",22.1380307807108,"Approved","OW438"
"2023-04-18 08:00",22.1200344184311,"Approved","OW438"
"2023-04-18 09:00",22.0940380561515,"Approved","OW438"
"2023-04-18 10:00",22.0650416938718,"Approved","OW438"
"2023-04-18 11:00",22.0400453315922,"Approved","OW438"
"2023-04-18 12:00",22.0250489693126,"Approved","OW438"
"2023-04-18 13:00",22.0200526070329,"Approved","OW438"
"2023-04-18 14:00",22.0290562447533,"Approved","OW438"
"2023-04-18 15:00",22.0450598824737,"Approved","OW438"
"2023-04-18 16:00",22.066063520194,"Approved","OW438"
"2023-04-18 17:00",22.0940671579144,"Approved","OW438"
"2023-04-18 18:00",22.1190707956347,"Approved","OW438"
"2023-04-18 19:00",22.1320744333551,"Approved","OW438"
"2023-04-18 20:00",22.1350780710755,"Approved","OW438"
"2023-04-18 21:00",22.1260817087958,"Approved","OW438"
"2023-04-18 22:00",22.1120853465162,"Approved","OW438"
"2023-04-18 23:00",22.1130889842365,"Approved","OW438"
"2023-04-19 00:00",22.1100926219569,"Approved","OW438"
"2023-04-19 01:00",22.1100962596773,"Approved","OW438"
"2023-04-19 02:00",22.1150998973976,"Approved","OW438"
"2023-04-19 03:00",22.124103535118,"Approved","OW438"
"2023-04-19 04:00",22.1381071728384,"Approved","OW438"
"2023-04-19 05:00",22.1511108105587,"Approved","OW438"
"2023-04-19 06:00",22.1571144482791,"Approved","OW438"
"2023-04-19 07:00",22.1571180859994,"Approved","OW438"
"2023-04-19 08:00",22.1481217237198,"Approved","OW438"
"2023-04-19 09:00",22.1331253614402,"Approved","OW438"
"2023-04-19 10:00",22.1111289991605,"Approved","OW438"
"2023-04-19 11:00",22.0871326368809,"Approved","OW438"
"2023-04-19 12:00",22.0671362746012,"Approved","OW438"
"2023-04-19 13:00",22.0581399123216,"Approved","OW438"
"2023-04-19 14:00",22.063143550042,"Approved","OW438"
"2023-04-19 15:00",22.0771471877623,"Approved","OW438"
"2023-04-19 16:00",22.1221508254827,"Approved","OW438"
"2023-04-19 17:00",22.1701544632031,"Approved","OW438"
"2023-04-19 18:00",22.1981581009234,"Approved","OW438"
"2023-04-19 19:00",22.2181617386438,"Approved","OW438"
"2023-04-19 20:00",22.2241653763641,"Approved","OW438"
"2023-04-19 21:00",22.2211690140845,"Approved","OW438"
"2023-04-19 22:00",22.2061726518049,"Approved","OW438"
"2023-04-19 23:00",22.1831762895252,"Approved","OW438"
"2023-04-20 00:00",22.1571799272456,"Approved","OW438"
"2023-04-20 01:00",22.138183564966,"Approved","OW438"
"2023-04-20 02:00",22.1311872026863,"Approved","OW438"
"2023-04-20 03:00",22.1331908404067,"Approved","OW438"
"2023-04-20 04:00",22.142194478127,"Approved","OW438"
"2023-04-20 05:00",22.1541981158474,"Approved","OW438"
"2023-04-20 06:00",22.1732017535678,"Approved","OW438"
"2023-04-20 07:00",22.1862053912881,"Approved","OW438"
"2023-04-20 08:00",22.1872090290085,"Approved","OW438"
"2023-04-20 09:00",22.1782126667289,"Approved","OW438"
"2023-04-20 10:00",22.1612163044492,"Approved","OW438"
"2023-04-20 11:00",22.1462199421696,"Approved","OW438"
"2023-04-20 12:00",22.1452235798899,"Approved","OW438"
"2023-04-20 13:00",22.1462272176103,"Approved","OW438"
"2023-04-20 14:00",22.1572308553307,"Approved","OW438"
"2023-04-20 15:00",22.171234493051,"Approved","OW438"
"2023-04-20 16:00",22.1922381307714,"Approved","OW438"
"2023-04-20 17:00",22.2112417684917,"Approved","OW438"
"2023-04-20 18:00",22.2212454062121,"Approved","OW438"
"2023-04-20 19:00",22.2252490439325,"Approved","OW438"
"2023-04-20 20:00",22.2292526816528,"Approved","OW438"
"2023-04-20 21:00",22.2222563193732,"Approved","OW438"
"2023-04-20 22:00",22.2092599570936,"Approved","OW438"
"2023-04-20 23:00",22.1872635948139,"Approved","OW438"
"2023-04-21 00:00",22.1562672325343,"Approved","OW438"
"2023-04-21 01:00",22.1242708702546,"Approved","OW438"
"2023-04-21 02:00",22.103274507975,"Approved","OW438"
"2023-04-21 03:00",22.0932781456954,"Approved","OW438"
"2023-04-21 04:00",22.0932817834157,"Approved","OW438"
"2023-04-21 05:00",22.1022854211361,"Approved","OW438"
"2023-04-21 06:00",22.1182890588565,"Approved","OW438"
"2023-04-21 07:00",22.1302926965768,"Approved","OW438"
"2023-04-21 08:00",22.1342963342972,"Approved","OW438"
"2023-04-21 09:00",22.1322999720175,"Approved","OW438"
"2023-04-21 10:00",22.1223036097379,"Approved","OW438"
"2023-04-21 11:00",22.1233072474583,"Approved","OW438"
"2023-04-21 12:00",22.1173108851786,"Approved","OW438"
"2023-04-21 13:00",22.107314522899,"Approved","OW438"
"2023-04-21 14:00",22.1063181606193,"Approved","OW438"
"2023-04-21 15:00",22.1163217983397,"Approved","OW438"
"2023-04-21 16:00",22.1303254360601,"Approved","OW438"
"2023-04-21 17:00",22.1473290737804,"Approved","OW438"
"2023-04-21 18:00",22.1653327115008,"Approved","OW438"
"2023-04-21 19:00",22.2083363492212,"Approved","OW438"
"2023-04-21 20:00",22.2323399869415,"Approved","OW438"
"2023-04-21 21:00",22.2443436246619,"Approved","OW438"
"2023-04-21 22:00",22.2503472623822,"Approved","OW438"
"2023-04-21 23:00",22.2443509001026,"Approved","OW438"
"2023-04-22 00:00",22.223354537823,"Approved","OW438"
"2023-04-22 01:00",22.2073581755433,"Approved","OW438"
"2023-04-22 02:00",22.1983618132637,"Approved","OW438"
"2023-04-22 03:00",22.1913654509841,"Approved","OW438"
"2023-04-22 04:00",22.1913690887044,"Approved","OW438"
"2023-04-22 05:00",22.1963727264248,"Approved","OW438"
"2023-04-22 06:00",22.2053763641451,"Approved","OW438"
"2023-04-22 07:00",22.2163800018655,"Approved","OW438"
"2023-04-22 08:00",22.2213836395859,"Approved","OW438"
"2023-04-22 09:00",22.2243872773062,"Approved","OW438"
"2023-04-22 10:00",22.2133909150266,"Approved","OW438"
"2023-04-22 11:00",22.2003945527469,"Approved","OW438"
"2023-04-22 12:00",22.1923981904673,"Approved","OW438"
"2023-04-22 13:00",22.1794018281877,"Approved","OW438"
"2023-04-22 14:00",22.171405465908,"Approved","OW438"
"2023-04-22 15:00",22.1744091036284,"Approved","OW438"
"2023-04-22 16:00",22.1884127413488,"Approved","OW438"
"2023-04-22 17:00",22.2014163790691,"Approved","OW438"
"2023-04-22 18:00",22.2114200167895,"Approved","OW438"
"2023-04-22 19:00",22.2164236545098,"Approved","OW438"
"2023-04-22 20:00",22.2184272922302,"Approved","OW438"
"2023-04-22 21:00",22.2164309299506,"Approved","OW438"
"2023-04-22 22:00",22.2104345676709,"Approved","OW438"
"2023-04-22 23:00",22.1994382053913,"Approved","OW438"
"2023-04-23 00:00",22.1784418431116,"Approved","OW438"
"2023-04-23 01:00",22.146445480832,"Approved","OW438"
"2023-04-23 02:00",22.1334491185524,"Approved","OW438"
"2023-04-23 03:00",22.1214527562727,"Approved","OW438"
"2023-04-23 04:00",22.1104563939931,"Approved","OW438"
"2023-04-23 05:00",22.1034600317135,"Approved","OW438"
"2023-04-23 06:00",22.1014636694338,"Approved","OW438"
"2023-04-23 07:00",22.1014673071542,"Approved","OW438"
"2023-04-23 08:00",22.1034709448745,"Approved","OW438"
"2023-04-23 09:00",22.1034745825949,"Approved","OW438"
"2023-04-23 10:00",22.0964782203153,"Approved","OW438"
"2023-04-23 11:00",22.0844818580356,"Approved","OW438"
"2023-04-23 12:00",22.069485495756,"Approved","OW438"
"2023-04-23 13:00",22.0534891334764,"Approved","OW438"
"2023-04-23 14:00",22.0414927711967,"Approved","OW438"
"2023-04-23 15:00",22.0454964089171,"Approved","OW438"
"2023-04-23 16:00",22.0615000466374,"Approved","OW438"
"2023-04-23 17:00",22.0795036843578,"Approved","OW438"
"2023-04-23 18:00",22.1005073220782,"Approved","OW438"
"2023-04-23 19:00",22.1155109597985,"Approved","OW438"
"2023-04-23 20:00",22.1305145975189,"Approved","OW438"
"2023-04-23 21:00",22.1645182352392,"Approved","OW438"
"2023-04-23 22:00",22.1875218729596,"Approved","OW438"
"2023-04-23 23:00",22.19452551068,"Approved","OW438"
"2023-04-24 00:00",22.1925291484003,"Approved","OW438"
"2023-04-24 01:00",22.1765327861207,"Approved","OW438"
"2023-04-24 02:00",22.1535364238411,"Approved","OW438"
"2023-04-24 03:00",22.1255400615614,"Approved","OW438"
"2023-04-24 04:00",22.1075436992818,"Approved","OW438"
"2023-04-24 05:00",22.0965473370021,"Approved","OW438"
"2023-04-24 06:00",22.0905509747225,"Approved","OW438"
"2023-04-24 07:00",22.0895546124429,"Approved","OW438"
"2023-04-24 08:00",22.0905582501632,"Approved","OW438"
"2023-04-24 09:00",22.0935618878836,"Approved","OW438"
"2023-04-24 10:00",22.094565525604,"Approved","OW438"
"2023-04-24 11:00",22.0935691633243,"Approved","OW438"
"2023-04-24 12:00",22.0875728010447,"Approved","OW438"
"2023-04-24 13:00",22.080576438765,"Approved","OW438"
"2023-04-24 14:00",22.0765800764854,"Approved","OW438"
"2023-04-24 15:00",22.0745837142058,"Approved","OW438"
"2023-04-24 16:00",22.0795873519261,"Approved","OW438"
"2023-04-24 17:00",22.0965909896465,"Approved","OW438"
"2023-04-24 18:00",22.1125946273668,"Approved","OW438"
"2023-04-24 19:00",22.1245982650872,"Approved","OW438"
"2023-04-24 20:00",22.1326019028076,"Approved","OW438"
"2023-04-24 21:00",22.1476055405279,"Approved","OW438"
"2023-04-24 22:00",22.1626091782483,"Approved","OW438"
"2023-04-24 23:00",22.1706128159687,"Approved","OW438"
"2023-04-25 00:00",22.172616453689,"Approved","OW438"
"2023-04-25 01:00",22.1656200914094,"Approved","OW438"
"2023-04-25 02:00",22.1576237291297,"Approved","OW438"
"2023-04-25 03:00",22.1626273668501,"Approved","OW438"
"2023-04-25 04:00",22.1516310045705,"Approved","OW438"
"2023-04-25 05:00",22.1336346422908,"Approved","OW438"
"2023-04-25 06:00",22.1276382800112,"Approved","OW438"
"2023-04-25 07:00",22.1236419177316,"Approved","OW438"
"2023-04-25 08:00",22.1226455554519,"Approved","OW438"
"2023-04-25 09:00",22.1216491931723,"Approved","OW438"
"2023-04-25 10:00",22.1356528308926,"Approved","OW438"
"2023-04-25 11:00",22.157656468613,"Approved","OW438"
"2023-04-25 12:00",22.1696601063334,"Approved","OW438"
"2023-04-25 13:00",22.1726637440537,"Approved","OW438"
"2023-04-25 14:00",22.1716673817741,"Approved","OW438"
"2023-04-25 15:00",22.1696710194944,"Approved","OW438"
"2023-04-25 16:00",22.1716746572148,"Approved","OW438"
"2023-04-25 17:00",22.1746782949352,"Approved","OW438"
"2023-04-25 18:00",22.1886819326555,"Approved","OW438"
"2023-04-25 19:00",22.2056855703759,"Approved","OW438"
"2023-04-25 20:00",22.2136892080963,"Approved","OW438"
"2023-04-25 21:00",22.2186928458166,"Approved","OW438"
"2023-04-25 22:00",22.220696483537,"Approved","OW438"
"2023-04-25 23:00",22.2257001212573,"Approved","OW438"
"2023-04-26 00:00",22.2427037589777,"Approved","OW438"
"2023-04-26 01:00",22.2467073966981,"Approved","OW438"
"2023-04-26 02:00",22.2417110344184,"Approved","OW438"
"2023-04-26 03:00",22.2277146721388,"Approved","OW438"
"2023-04-26 04:00",22.2097183098592,"Approved","OW438"
"2023-04-26 05:00",22.1877219475795,"Approved","OW438"
"2023-04-26 06:00",22.1657255852999,"Approved","OW438"
"2023-04-26 07:00",22.1497292230202,"Approved","OW438"
"2023-04-26 08:00",22.1397328607406,"Approved","OW438"
"2023-04-26 09:00",22.134736498461,"Approved","OW438"
"2023-04-26 10:00",22.1317401361813,"Approved","OW438"
"2023-04-26 11:00",22.1277437739017,"Approved","OW438"
"2023-04-26 12:00",22.1267474116221,"Approved","OW438"
"2023-04-26 13:00",22.1237510493424,"Approved","OW438"
"2023-04-26 14:00",22.1167546870628,"Approved","OW438"
"2023-04-26 15:00",22.1107583247831,"Approved","OW438"
"2023-04-26 16:00",22.1067619625035,"Approved","OW438"
"2023-04-26 17:00",22.1057656002239,"Approved","OW438"
"2023-04-26 18:00",22.1087692379442,"Approved","OW438"
"2023-04-26 19:00",22.1127728756646,"Approved","OW438"
"2023-04-26 20:00",22.1157765133849,"Approved","OW438"
"2023-04-26 21:00",22.1177801511053,"Approved","OW438"
"2023-04-26 22:00",22.1437837888257,"Approved","OW438"
"2023-04-26 23:00",22.165787426546,"Approved","OW438"
"2023-04-27 00:00",22.1777910642664,"Approved","OW438"
"2023-04-27 01:00",22.1837947019868,"Approved","OW438"
"2023-04-27 02:00",22.1827983397071,"Approved","OW438"
"2023-04-27 03:00",22.1748019774275,"Approved","OW438"
"2023-04-27 04:00",22.1608056151478,"Approved","OW438"
"2023-04-27 05:00",22.1448092528682,"Approved","OW438"
"2023-04-27 06:00",22.1358128905886,"Approved","OW438"
"2023-04-27 07:00",22.1248165283089,"Approved","OW438"
"2023-04-27 08:00",22.1158201660293,"Approved","OW438"
"2023-04-27 09:00",22.1098238037497,"Approved","OW438"
"2023-04-27 10:00",22.10882744147,"Approved","OW438"
"2023-04-27 11:00",22.1098310791904,"Approved","OW438"
"2023-04-27 12:00",22.1128347169107,"Approved","OW438"
"2023-04-27 13:00",22.1148383546311,"Approved","OW438"
"2023-04-27 14:00",22.1158419923515,"Approved","OW438"
"2023-04-27 15:00",22.1168456300718,"Approved","OW438"
"2023-04-27 16:00",22.1148492677922,"Approved","OW438"
"2023-04-27 17:00",22.1138529055125,"Approved","OW438"
"2023-04-27 18:00",22.1138565432329,"Approved","OW438"
"2023-04-27 19:00",22.1178601809533,"Approved","OW438"
"2023-04-27 20:00",22.1178638186736,"Approved","OW438"
"2023-04-27 21:00",22.117867456394,"Approved","OW438"
"2023-04-27 22:00",22.1158710941144,"Approved","OW438"
"2023-04-27 23:00",22.1378747318347,"Approved","OW438"
"2023-04-28 00:00",22.1498783695551,"Approved","OW438"
"2023-04-28 01:00",22.1528820072754,"Approved","OW438"
"2023-04-28 02:00",22.1498856449958,"Approved","OW438"
"2023-04-28 03:00",22.1428892827162,"Approved","OW438"
"2023-04-28 04:00",22.1358929204365,"Approved","OW438"
"2023-04-28 05:00",22.1208965581569,"Approved","OW438"
"2023-04-28 06:00",22.1019001958773,"Approved","OW438"
"2023-04-28 07:00",22.0849038335976,"Approved","OW438"
"2023-04-28 08:00",22.066907471318,"Approved","OW438"
"2023-04-28 09:00",22.0529111090383,"Approved","OW438"
"2023-04-28 10:00",22.0439147467587,"Approved","OW438"
"2023-04-28 11:00",22.0389183844791,"Approved","OW438"
"2023-04-28 12:00",22.0379220221994,"Approved","OW438"
"2023-04-28 13:00",22.0379256599198,"Approved","OW438"
"2023-04-28 14:00",22.0379292976401,"Approved","OW438"
"2023-04-28 15:00",22.0379329353605,"Approved","OW438"
"2023-04-28 16:00",22.0449365730809,"Approved","OW438"
"2023-04-28 17:00",22.0479402108012,"Approved","OW438"
"2023-04-28 18:00",22.0459438485216,"Approved","OW438"
"2023-04-28 19:00",22.041947486242,"Approved","OW438"
"2023-04-28 20:00",22.0399511239623,"Approved","OW438"
"2023-04-28 21:00",22.0389547616827,"Approved","OW438"
"2023-04-28 22:00",22.036958399403,"Approved","OW438"
"2023-04-28 23:00",22.0579620371234,"Approved","OW438"
"2023-04-29 00:00",22.0689656748438,"Approved","OW438"
"2023-04-29 01:00",22.0729693125641,"Approved","OW438"
"2023-04-29 02:00",22.0739729502845,"Approved","OW438"
"2023-04-29 03:00",22.0709765880049,"Approved","OW438"
"2023-04-29 04:00",22.0639802257252,"Approved","OW438"
"2023-04-29 05:00",22.0499838634456,"Approved","OW438"
"2023-04-29 06:00",22.0349875011659,"Approved","OW438"
"2023-04-29 07:00",22.0159911388863,"Approved","OW438"
"2023-04-29 08:00",21.9989947766067,"Approved","OW438"
"2023-04-29 09:00",22.003998414327,"Approved","OW438"
"2023-04-29 10:00",22.0150020520474,"Approved","OW438"
"2023-04-29 11:00",22.0220056897677,"Approved","OW438"
"2023-04-29 12:00",22.0320093274881,"Approved","OW438"
"2023-04-29 13:00",22.0400129652085,"Approved","OW438"
"2023-04-29 14:00",22.0520166029288,"Approved","OW438"
"2023-04-29 15:00",22.0590202406492,"Approved","OW438"
"2023-04-29 16:00",22.0620238783696,"Approved","OW438"
"2023-04-29 17:00",22.0620275160899,"Approved","OW438"
"2023-04-29 18:00",22.0630311538103,"Approved","OW438"
"2023-04-29 19:00",22.0650347915306,"Approved","OW438"
"2023-04-29 20:00",22.066038429251,"Approved","OW438"
"2023-04-29 21:00",22.0620420669714,"Approved","OW438"
"2023-04-29 22:00",22.0610457046917,"Approved","OW438"
"2023-04-29 23:00",22.0640493424121,"Approved","OW438"
"2023-04-30 00:00",22.0630529801325,"Approved","OW438"
"2023-04-30 01:00",22.0640566178528,"Approved","OW438"
"2023-04-30 02:00",22.0640602555732,"Approved","OW438"
"2023-04-30 03:00",22.0660638932935,"Approved","OW438"
"2023-04-30 04:00",22.0680675310139,"Approved","OW438"
"2023-04-30 05:00",22.0680711687343,"Approved","OW438"
"2023-04-30 06:00",22.0590748064546,"Approved","OW438"
"2023-04-30 07:00",22.042078444175,"Approved","OW438"
"2023-04-30 08:00",22.0200820818953,"Approved","OW438"
"2023-04-30 09:00",22.0020857196157,"Approved","OW438"
"2023-04-30 10:00",21.9890893573361,"Approved","OW438"
"2023-04-30 11:00",21.9800929950564,"Approved","OW438"
"2023-04-30 12:00",21.9750966327768,"Approved","OW438"
"2023-04-30 13:00",21.9791002704972,"Approved","OW438"
"2023-04-30 14:00",21.9861039082175,"Approved","OW438"
"2023-04-30 15:00",21.9951075459379,"Approved","OW438"
"2023-04-30 16:00",22.0011111836582,"Approved","OW438"
"2023-04-30 17:00",22.0051148213786,"Approved","OW438"
"2023-04-30 18:00",22.006118459099,"Approved","OW438"
"2023-04-30 19:00",22.0021220968193,"Approved","OW438"
"2023-04-30 20:00",22.0001257345397,"Approved","OW438"
"2023-04-30 21:00",22.0061293722601,"Approved","OW438"
"2023-04-30 22:00",22.0261330099804,"Approved","OW438"
"2023-04-30 23:00",22.0561366477008,"Approved","OW438"
"2023-05-01 00:00",22.0751402854211,"Approved","OW438"
"2023-05-01 01:00",22.0901439231415,"Approved","OW438"
"2023-05-01 02:00",22.1081475608619,"Approved","OW438"
"2023-05-01 03:00",22.1391511985822,"Approved","OW438"
"2023-05-01 04:00",22.1581548363026,"Approved","OW438"
"2023-05-01 05:00",22.1761584740229,"Approved","OW438"
"2023-05-01 06:00",22.1781621117433,"Approved","OW438"
"2023-05-01 07:00",22.1691657494637,"Approved","OW438"
"2023-05-01 08:00",22.151169387184,"Approved","OW438"
"2023-05-01 09:00",22.1311730249044,"Approved","OW438"
"2023-05-01 10:00",22.1141766626248,"Approved","OW438"
"2023-05-01 11:00",22.1031803003451,"Approved","OW438"
"2023-05-01 12:00",22.0981839380655,"Approved","OW438"
"2023-05-01 13:00",22.0991875757858,"Approved","OW438"
"2023-05-01 14:00",22.1061912135062,"Approved","OW438"
"2023-05-01 15:00",22.1151948512266,"Approved","OW438"
"2023-05-01 16:00",22.1431984889469,"Approved","OW438"
"2023-05-01 17:00",22.1682021266673,"Approved","OW438"
"2023-05-01 18:00",22.1802057643877,"Approved","OW438"
"2023-05-01 19:00",22.180209402108,"Approved","OW438"
"2023-05-01 20:00",22.1732130398284,"Approved","OW438"
"2023-05-01 21:00",22.1612166775487,"Approved","OW438"
"2023-05-01 22:00",22.1462203152691,"Approved","OW438"
"2023-05-01 23:00",22.1332239529895,"Approved","OW438"
"2023-05-02 00:00",22.1252275907098,"Approved","OW438"
"2023-05-02 01:00",22.1252312284302,"Approved","OW438"
"2023-05-02 02:00",22.1242348661505,"Approved","OW438"
"2023-05-02 03:00",22.1322385038709,"Approved","OW438"
"2023-05-02 04:00",22.1362421415913,"Approved","OW438"
"2023-05-02 05:00",22.1362457793116,"Approved","OW438"
"2023-05-02 06:00",22.132249417032,"Approved","OW438"
"2023-05-02 07:00",22.1192530547524,"Approved","OW438"
"2023-05-02 08:00",22.1092566924727,"Approved","OW438"
"2023-05-02 09:00",22.0882603301931,"Approved","OW438"
"2023-05-02 10:00",22.0682639679134,"Approved","OW438"
"2023-05-02 11:00",22.0552676056338,"Approved","OW438"
"2023-05-02 12:00",22.0452712433542,"Approved","OW438"
"2023-05-02 13:00",22.0422748810745,"Approved","OW438"
"2023-05-02 14:00",22.0472785187949,"Approved","OW438"
"2023-05-02 15:00",22.0562821565152,"Approved","OW438"
"2023-05-02 16:00",22.0662857942356,"Approved","OW438"
"2023-05-02 17:00",22.068289431956,"Approved","OW438"
"2023-05-02 18:00",22.0772930696763,"Approved","OW438"
"2023-05-02 19:00",22.0942967073967,"Approved","OW438"
"2023-05-02 20:00",22.0993003451171,"Approved","OW438"
"2023-05-02 21:00",22.0903039828374,"Approved","OW438"
"2023-05-02 22:00",22.0753076205578,"Approved","OW438"
"2023-05-02 23:00",22.0623112582781,"Approved","OW438"
"2023-05-03 00:00",22.0623148959985,"Approved","OW438"
"2023-05-03 01:00",22.0673185337189,"Approved","OW438"
"2023-05-03 02:00",22.0753221714392,"Approved","OW438"
"2023-05-03 03:00",22.0833258091596,"Approved","OW438"
"2023-05-03 04:00",22.11632944688,"Approved","OW438"
"2023-05-03 05:00",22.1443330846003,"Approved","OW438"
"2023-05-03 06:00",22.1553367223207,"Approved","OW438"
"2023-05-03 07:00",22.155340360041,"Approved","OW438"
"2023-05-03 08:00",22.1463439977614,"Approved","OW438"
"2023-05-03 09:00",22.1303476354818,"Approved","OW438"
"2023-05-03 10:00",22.1123512732021,"Approved","OW438"
"2023-05-03 11:00",22.1013549109225,"Approved","OW438"
"2023-05-03 12:00",22.0973585486428,"Approved","OW438"
"2023-05-03 13:00",22.1013621863632,"Approved","OW438"
"2023-05-03 14:00",22.1093658240836,"Approved","OW438"
"2023-05-03 15:00",22.1203694618039,"Approved","OW438"
"2023-05-03 16:00",22.1283730995243,"Approved","OW438"
"2023-05-03 17:00",22.1383767372447,"Approved","OW438"
"2023-05-03 18:00",22.140380374965,"Approved","OW438"
"2023-05-03 19:00",22.1383840126854,"Approved","OW438"
"2023-05-03 20:00",22.1443876504057,"Approved","OW438"
"2023-05-03 21:00",22.1513912881261,"Approved","OW438"
"2023-05-03 22:00",22.1433949258465,"Approved","OW438"
"2023-05-03 23:00",22.1233985635668,"Approved","OW438"
"2023-05-04 00:00",22.1024022012872,"Approved","OW438"
"2023-05-04 01:00",22.0884058390076,"Approved","OW438"
"2023-05-04 02:00",22.0904094767279,"Approved","OW438"
"2023-05-04 03:00",22.1034131144483,"Approved","OW438"
"2023-05-04 04:00",22.1184167521686,"Approved","OW438"
"2023-05-04 05:00",22.131420389889,"Approved","OW438"
"2023-05-04 06:00",22.1384240276094,"Approved","OW438"
"2023-05-04 07:00",22.1364276653297,"Approved","OW438"
"2023-05-04 08:00",22.1274313030501,"Approved","OW438"
"2023-05-04 09:00",22.1114349407704,"Approved","OW438"
"2023-05-04 10:00",22.0944385784908,"Approved","OW438"
"2023-05-04 11:00",22.0754422162112,"Approved","OW438"
"2023-05-04 12:00",22.0624458539315,"Approved","OW438"
"2023-05-04 13:00",22.0634494916519,"Approved","OW438"
"2023-05-04 14:00",22.0694531293723,"Approved","OW438"
"2023-05-04 15:00",22.0804567670926,"Approved","OW438"
"2023-05-04 16:00",22.108460404813,"Approved","OW438"
"2023-05-04 17:00",22.1394640425333,"Approved","OW438"
"2023-05-04 18:00",22.1534676802537,"Approved","OW438"
"2023-05-04 19:00",22.1604713179741,"Approved","OW438"